SCP
0 0 0 0 0 0 0 0 0 0 0 0 0 0 0 0 0 0 0 0 0 0 0 0 0 0 0 0 0 0 0 0 0 0 0 0 0 0 0 0 0 0 0 0
0 0 0 0 0 0 0 0 0 0 0 0 0 0 0 0 0 0 0 0 0 0 0 0 0 0 0 0 0 0 0 0 0 0 0 0 0 0 0 0 0 0 0 0
0 0 0 0 0 0 0 0 0 0 0 0 0 0 0 0 0 0 0 0 0 0 0 0 0 0 0 0 0 0 0 0 0 0 0 0 0 0 0 0 0 0 0 0
0 0 0 0 0 0 0 0 0 0 0 0 0 0 0 0 0 0 0 0 0 0 0 0 0 0 0 0 0 0 0 0 0 0 0 0 0 0 0 0 0 0 0 0
0 0 0 0 0 0 0 0 0 0 0 0 0 0 0 0 0 0 0 0 0 0 0 0 0 0 0 0 0 0 0 0 0 0 0 0 0 0 0 0 0 0 0 0
0 0 0 0 0 0 0 0 0 0 0 0 0 0 0 0 0 0 0 0 0 0 0 0 0 0 0 0 0 0 0 0 0 0 0 0 0 0 0 0 0 0 0 0
0 0 0 0 0 0 0 0 0 0 0 0 0 0 0 0 0 0 0 0 0 0 0 0 0 0 0 0 0 0 0 0 0 0 0 0 0 0 0 0 0 0 0 0
0 0 0 0 0 0 0 0 0 0 0 0 0 0 0 0 0 0 0 0 0 0 0 0 0 0 0 0 0 0 0 0 0 0 0 0 0 0 0 0 0 0 0 0
0 0 0 0 0 0 0 0 0 0 0 0 0 0 0 0 0 0 0 0 0 0 0 0 0 0 0 0 0 0 0 0 0 0 0 0 0 0 0 0 0 0 0 0
0 0 0 0 0 0 0 0 0 0 0 0 0 0 0 0 0 0 0 0 0 0 0 0 0 0 0 0 0 0 0 0 0 0 0 0 0 0 0 0 0 0 0 0
0 0 0 0 0 0 0 0 0 0 0 0 0 0 0 0 0 0 0 0 0 0 0 0 0 0 0 0 0 0 0 0 0 0 0 0 0 0 0 0 0 0 0 0
0 0 0 0 0 0 0 0 0 0 0 0 0 0 0 0 0 0 0 0 0 0 0 0 0 0 0 0 0 0 0 0 0 0 0 0 0 0 0 0 0 0 0 0
0 0 0 0 0 0 0 0 0 0 0 0 0 0 0 0 0 0 0 0 0 0 0 0 0 0 0 0 0 0 0 0 0 0 0 0 0 0 0 0 0 0 0 0
0 0 0 0 0 0 0 0 0 0 0 0 0 0 0 0 0 0 0 0 0 0 0 0 0 0 0 0 0 0 0 0 0 0 0 0 0 0 0 0 0 0 0 0
0 0 0 0 0 0 0 0 0 0 0 0 0 0 0 0 0 0 0 0 0 0 0 0 0 0 0 0 0 0 0 0 0 0 0 0 0 0 0 0 0 0 0 0
0 0 0 0 0 0 0 0 0 0 0 0 0 0 0 0 0 0 0 0 0 0 0 0 0 0 0 0 0 0 0 0 0 0 0 0 0 0 0 0 0 0 0 0
0 0 0 0 0 0 0 0 0 0 0 0 0 0 0 0 0 0 0 0 0 0 0 0 0 0 0 0 0 0 0 0 0 0 0 0 0 0 0 0 0 0 0 0
0 0 0 0 0 0 0 0 0 0 0 0 0 0 0 0 0 0 0 0 0 0 0 0 0 0 0 0 0 0 0 0 0 0 0 0 0 0 0 0 0 0 0 0
0 0 0 0 0 0 0 0 0 0 0 0 0 0 0 0 0 0 0 0 0 0 0 0 0 0 0 0 0 0 0 0 0 0 0 0 0 0 0 0 0 0 0 0
0 0 0 0 0 0 0 0 0 0 0 0 0 0 0 0 0 0 0 0 0 0 0 0 0 0 0 0 0 0 0 0 0 0 0 0 0 0 0 0 0 0 0 0
0 0 0 0 0 0 0 0 0 0 0 0 0 0 0 0 0 0 0 0 0 0 0 0 0 0 0 0 0 0 0 0 0 0 0 0 0 0 0 0 0 0 0 0
0 0 0 0 0 0 0 0 0 0 0 0 0 0 0 0 0 0 0 0 0 0 0 0 0 0 0 0 0 0 0 0 0 0 0 0 0 0 0 0 0 0 0 0
0 0 0 0 0 0 0 0 0 0 0 0 0 0 0 0 0 0 0 0 0 0 0 0 0 0 0 0 0 0 0 0 0 0 0 0 0 0 0 0 0 0 0 0
0 0 0 0 0 0 0 0 0 0 0 0 0 0 0 0 0 0 0 0 0 0 0 0 0 0 0 0 0 0 0 0 0 0 0 0 0 0 0 0 -0 0 0 0
0 0 0 0 0 0 0 0 0 0 0 0 0 0 0 0 0 0 0 0 0 0 0 0 0 0 0 0 0 0 0 0 0 0 0 0 0 0 0 0 -0 -0 0 0
0 0 0 0 0 0 0 0 0 0 0 0 0 0 0 0 0 0 0 0 0 0 0 0 0 0 0 0 0 0 0 0 0 0 0 0 0 0 0 0 -0 -0 0 0
Wind_Speed
2 3 3 6 6 4 3 5 10 9 6 6 12 14 11 16 12 13 12 10 9 9 7 7 5 3 4 5 5 5 7 7 7 6 7 8 9 9 9 8 11 14 16 17
5 4 7 4 3 3 4 6 9 9 3 4 8 13 12 18 22 18 17 14 11 8 6 6 4 3 3 3 4 6 6 6 6 5 5 5 8 8 9 7 10 12 15 18
4 6 2 3 4 5 6 7 8 7 5 6 8 10 12 8 11 10 12 11 10 9 9 7 5 2 2 3 3 5 5 5 5 6 5 8 8 8 7 12 10 10 15 18
5 4 3 5 6 6 8 6 6 5 3 6 4 11 7 7 8 14 14 11 10 8 7 6 4 1 1 2 3 4 5 5 5 5 6 9 11 14 15 13 13 16 15 17
6 4 6 7 7 8 7 2 4 5 4 5 5 10 10 4 10 18 15 11 10 9 8 7 5 2 2 3 4 4 5 6 5 5 5 7 8 10 12 14 17 17 13 13
6 3 5 6 1 2 1 3 5 1 2 6 8 11 12 9 13 11 15 12 11 10 9 7 4 2 3 4 4 5 6 7 5 5 6 7 10 13 16 17 17 15 12 12
5 3 1 3 3 2 3 3 6 7 2 11 3 7 15 9 8 11 20 16 11 10 8 7 5 5 5 5 6 6 7 7 6 7 7 8 9 12 15 15 16 18 15 13
4 8 6 5 8 7 6 7 6 6 8 8 6 12 11 4 4 6 13 13 10 9 8 7 7 6 6 6 7 7 7 8 8 9 9 8 10 9 10 13 15 16 14 15
9 9 0 2 2 8 6 6 5 4 4 7 11 11 11 2 1 5 10 10 10 9 8 8 7 7 7 6 6 6 8 9 10 10 11 11 10 10 13 14 15 14 15 16
10 7 4 2 1 2 2 6 5 4 5 10 12 10 10 8 12 10 12 13 11 9 8 7 6 7 6 4 5 6 6 8 10 11 11 13 12 13 13 14 18 18 18 18
8 8 3 3 11 13 8 6 7 5 5 6 11 15 10 12 18 21 20 16 13 11 9 7 7 5 4 4 5 6 6 8 11 12 12 14 14 14 14 16 17 18 19 18
8 7 7 11 6 4 11 13 13 9 10 9 10 19 5 9 13 18 17 14 11 10 8 7 6 5 4 5 6 6 6 9 12 12 14 16 16 16 17 18 18 19 19 18
12 8 3 5 2 3 7 9 13 10 6 8 11 21 2 2 5 10 11 11 9 8 7 5 5 4 4 5 6 6 7 9 12 13 15 17 17 18 18 19 19 19 20 19
11 10 14 19 13 11 11 10 13 15 12 15 24 30 14 5 6 8 10 11 9 7 6 6 5 5 5 6 6 6 8 9 12 14 16 17 18 19 20 20 20 20 19 19
9 11 12 19 14 6 15 14 17 24 25 23 33 32 33 13 16 17 13 10 9 7 7 6 6 5 5 5 5 7 9 12 13 15 17 17 19 19 20 20 20 20 19 19
8 8 5 11 8 8 23 26 20 25 27 32 33 40 32 13 9 13 13 13 12 9 9 8 7 4 4 7 9 11 11 13 14 15 17 18 19 20 20 20 20 20 19 19
10 10 7 12 2 0 25 23 21 21 23 17 29 41 19 5 9 14 17 16 12 11 10 8 4 1 5 7 9 10 13 14 14 15 16 17 19 20 20 21 20 20 19 19
15 10 7 5 4 20 21 8 12 19 27 24 25 23 7 5 6 7 9 13 12 11 9 5 2 2 3 5 7 10 12 13 14 15 15 17 19 20 21 21 21 20 19 18
13 13 9 7 9 19 25 9 12 14 21 17 26 25 12 7 6 2 5 9 10 8 6 5 4 3 3 6 9 11 12 13 14 16 17 18 19 20 21 21 22 20 19 19
8 7 9 9 9 17 17 6 7 5 17 12 21 20 10 14 8 9 10 9 8 8 6 5 4 4 4 6 8 10 12 13 15 17 19 19 18 18 20 21 21 19 18 18
12 11 14 15 15 20 12 11 13 10 16 5 12 10 14 15 8 9 16 11 9 9 7 6 5 4 4 6 8 10 12 13 16 17 18 18 17 18 18 18 18 18 18 19
19 15 14 11 14 24 13 18 22 16 4 5 8 10 11 7 9 13 14 13 11 9 7 6 4 3 4 6 8 10 12 14 15 17 18 18 17 15 14 17 17 16 17 17
19 21 14 21 23 12 20 19 13 7 8 7 8 7 12 11 11 12 11 11 9 8 7 5 4 3 4 6 7 10 13 15 16 16 16 16 16 14 14 15 17 15 13 13
10 7 8 13 24 11 11 7 8 8 8 9 9 11 14 12 13 12 11 10 9 8 7 5 4 2 3 5 7 8 12 13 13 14 15 15 14 15 14 13 13 13 12 13
16 14 13 19 19 6 14 16 13 10 9 10 9 11 15 15 12 13 11 11 9 8 6 5 4 2 3 5 7 8 10 11 12 12 13 14 13 13 13 13 13 15 12 16
17 20 20 22 15 15 14 19 19 18 16 16 15 12 10 12 14 13 12 11 9 9 7 6 5 3 3 5 7 7 7 8 10 11 11 11 11 12 13 14 14 18 20 26
Wind_Direction
35 49 251 236 210 215 205 235 257 256 251 227 232 243 217 201 206 205 202 198 193 196 186 163 149 104 53 23 4 357 7 4 3 358 354 345 337 329 323 317 324 322 319 317
31 267 243 198 207 238 232 254 266 281 267 255 253 250 239 203 209 204 196 195 192 194 185 174 152 92 41 14 1 2 2 348 349 354 344 333 324 318 313 316 319 316 318 319
213 244 162 175 227 243 248 226 247 261 317 305 292 275 249 226 213 200 196 196 189 187 186 180 165 114 27 1 347 349 342 331 339 345 337 332 323 323 324 324 319 317 317 313
243 248 190 221 232 201 262 248 243 272 303 286 295 292 253 236 215 206 201 194 191 192 180 173 174 171 353 321 314 325 317 312 323 335 340 341 333 323 319 317 314 315 311 307
248 200 190 221 232 190 232 277 259 260 254 283 244 256 270 223 228 220 203 192 191 192 182 176 178 198 281 275 287 296 292 293 303 322 334 329 313 307 309 310 308 310 307 302
249 253 199 211 136 156 133 346 302 359 89 266 230 213 266 221 219 211 194 190 188 186 181 176 181 212 260 268 277 280 278 279 300 327 324 307 300 307 308 307 308 309 307 304
294 274 232 137 126 40 95 68 335 332 286 244 266 237 251 242 222 200 190 185 184 179 175 188 209 233 253 264 266 272 276 295 325 329 312 296 292 299 297 301 306 307 305 304
248 274 218 193 186 180 181 165 188 245 259 281 295 244 251 288 287 197 172 170 175 180 184 199 213 227 244 249 259 276 302 325 330 321 309 299 292 291 289 295 298 296 297 297
199 240 184 177 195 158 171 203 190 185 277 282 262 268 294 164 122 146 156 170 184 188 196 208 220 233 237 241 267 306 327 324 319 314 309 301 292 290 293 296 295 292 290 292
179 228 204 162 88 294 190 160 127 179 257 274 277 253 247 204 205 193 189 191 194 197 205 215 227 242 235 255 301 319 310 305 308 308 305 305 301 296 296 299 297 294 292 292
164 202 191 161 201 200 172 176 185 198 205 220 271 266 213 208 200 196 198 195 192 193 200 215 231 245 241 278 293 296 301 309 311 310 308 306 304 304 302 300 296 294 292 291
177 174 224 223 220 233 197 190 174 191 228 220 251 272 218 225 208 198 196 190 190 193 196 208 233 238 249 277 291 299 310 315 313 312 311 309 309 310 306 300 297 296 295 294
157 158 226 292 249 250 233 216 202 215 229 223 238 265 248 251 198 188 184 183 188 191 199 219 237 250 273 288 295 305 316 316 316 315 313 312 312 310 306 302 302 300 298 296
148 173 201 230 228 178 216 209 193 200 224 237 239 255 262 237 213 202 193 189 185 188 204 223 244 263 267 277 291 313 321 321 318 317 315 314 313 310 307 305 304 302 300 297
154 210 225 245 251 208 241 233 199 213 227 238 255 260 264 241 209 207 198 187 182 193 205 220 240 247 260 290 319 330 328 321 320 318 315 313 312 311 308 307 307 305 302 299
174 213 222 258 241 231 263 259 229 232 241 246 258 266 266 266 203 197 192 187 190 193 203 219 231 257 318 342 341 335 322 319 321 315 314 315 313 312 312 312 311 310 307 304
182 185 196 255 178 301 257 243 226 229 228 224 242 254 262 272 201 194 190 187 186 189 201 211 211 320 357 350 337 322 319 320 318 316 314 313 315 315 316 316 315 311 308 302
176 180 203 229 128 242 257 152 200 226 244 229 237 250 238 214 186 170 163 168 176 185 192 187 156 43 11 343 333 324 321 320 320 317 315 318 320 317 317 317 314 310 307 304
186 184 195 189 226 261 273 212 178 206 255 225 233 246 233 141 101 160 173 166 171 171 164 150 111 62 14 352 337 326 321 322 322 320 320 322 321 318 316 315 313 313 311 307
184 180 197 193 217 243 256 158 140 117 267 217 214 232 185 145 179 210 181 159 149 149 147 127 95 58 23 351 337 327 326 327 323 322 320 320 319 314 312 312 314 313 311 307
181 194 215 221 233 254 241 154 141 192 249 189 196 190 165 181 196 158 153 156 155 149 131 112 94 60 17 348 340 331 328 324 323 320 318 318 314 309 310 314 315 314 314 312
181 185 198 199 225 245 175 160 190 213 146 159 167 164 166 152 127 140 154 157 154 142 123 111 93 49 9 355 346 331 325 325 324 322 319 314 310 312 319 318 316 319 319 316
196 196 191 201 226 239 168 194 199 152 161 170 162 161 152 143 157 160 161 155 145 133 126 111 89 35 4 358 347 328 324 328 327 320 314 310 314 322 326 323 323 325 324 324
223 215 214 231 245 225 203 208 174 168 166 162 159 157 159 163 167 164 157 152 145 138 133 123 103 53 356 350 341 329 326 331 322 315 315 320 326 329 333 329 327 327 331 330
199 187 208 235 245 211 214 201 188 174 157 154 155 169 171 162 164 164 158 156 150 141 134 128 119 88 359 346 337 333 334 329 321 317 322 326 329 331 332 334 330 331 337 336
196 197 203 225 206 193 210 194 185 179 179 172 170 178 175 167 165 157 154 150 145 142 138 133 127 96 20 348 329 329 327 323 319 326 330 332 334 334 334 333 331 338 348 349